TimeMDT,TemperatureF,Dew PointF,Humidity,Sea Level PressureIn,VisibilityMPH,Wind Direction,Wind SpeedMPH,Gust SpeedMPH,PrecipitationIn,Events,Conditions,WindDirDegrees,DateUTC
12:53 AM,55.9,54.0,93,30.07,10.0,NNW,6.9,-,N/A,,Scattered Clouds,330,2013-09-04 06:53:00
1:53 AM,54.0,52.0,93,30.06,10.0,NW,6.9,-,N/A,,Scattered Clouds,310,2013-09-04 07:53:00
2:53 AM,52.0,50.0,93,30.06,10.0,NNW,8.1,-,N/A,,Clear,330,2013-09-04 08:53:00
3:53 AM,53.1,50.0,89,30.05,10.0,Calm,Calm,-,N/A,,Clear,0,2013-09-04 09:53:00
4:53 AM,51.1,50.0,96,30.08,10.0,East,4.6,-,N/A,,Clear,100,2013-09-04 10:53:00
5:53 AM,48.9,48.0,97,30.09,10.0,ENE,3.5,-,N/A,,Clear,70,2013-09-04 11:53:00
6:25 AM,48.2,46.4,93,30.39,2.5,Calm,Calm,-,N/A,,Partly Cloudy,0,2013-09-04 12:25:00
6:29 AM,46.4,46.4,100,30.39,1.0,Calm,Calm,-,N/A,,Mist,0,2013-09-04 12:29:00
6:37 AM,46.4,44.6,93,30.39,0.5,WNW,3.5,-,N/A,Fog,Fog,300,2013-09-04 12:37:00
6:53 AM,46.0,46.0,100,30.14,0.5,NNW,3.5,-,N/A,Fog,Fog,340,2013-09-04 12:53:00
7:10 AM,46.4,44.6,93,30.40,1.2,NNW,3.5,-,N/A,,Scattered Clouds,330,2013-09-04 13:10:00
7:18 AM,46.4,46.4,100,30.40,9.0,Calm,Calm,-,N/A,,Partly Cloudy,0,2013-09-04 13:18:00
7:53 AM,52.0,51.1,97,30.15,10.0,Calm,Calm,-,N/A,,Clear,0,2013-09-04 13:53:00
8:53 AM,57.0,53.1,87,30.17,10.0,East,4.6,-,N/A,,Clear,90,2013-09-04 14:53:00
9:53 AM,62.1,53.1,72,30.19,10.0,Calm,Calm,-,N/A,,Clear,0,2013-09-04 15:53:00
10:53 AM,68.0,53.1,59,30.16,10.0,Calm,Calm,-,N/A,,Clear,0,2013-09-04 16:53:00
11:53 AM,71.1,51.1,49,30.14,10.0,SE,3.5,-,N/A,,Clear,130,2013-09-04 17:53:00
12:53 PM,73.9,50.0,43,30.13,10.0,Variable,4.6,-,N/A,,Clear,0,2013-09-04 18:53:00
1:53 PM,78.1,48.9,36,30.10,10.0,Variable,5.8,-,N/A,,Clear,0,2013-09-04 19:53:00
2:53 PM,78.1,46.9,33,30.09,10.0,South,4.6,-,N/A,,Clear,170,2013-09-04 20:53:00
3:53 PM,81.0,45.0,28,30.06,10.0,Variable,5.8,-,N/A,,Clear,0,2013-09-04 21:53:00
4:53 PM,82.9,39.0,21,30.05,10.0,West,10.4,18.4,N/A,,Clear,280,2013-09-04 22:53:00
5:53 PM,81.0,37.9,21,30.06,10.0,West,10.4,-,N/A,,Clear,260,2013-09-04 23:53:00
6:53 PM,79.0,41.0,26,30.05,10.0,West,4.6,-,N/A,,Clear,260,2013-09-05 00:53:00
7:53 PM,70.0,48.0,46,30.08,10.0,SW,9.2,-,N/A,,Clear,230,2013-09-05 01:53:00
8:53 PM,66.0,48.0,52,30.09,10.0,Calm,Calm,-,N/A,,Clear,0,2013-09-05 02:53:00
9:53 PM,68.0,48.9,50,30.08,10.0,NNW,9.2,-,N/A,,Scattered Clouds,340,2013-09-05 03:53:00
10:53 PM,64.9,50.0,58,30.06,10.0,North,6.9,-,N/A,,Clear,360,2013-09-05 04:53:00
11:53 PM,64.0,50.0,60,30.06,10.0,East,3.5,-,N/A,,Scattered Clouds,100,2013-09-05 05:53:00